Location: Albuquerque Trailhead
(34.7934°N, 106.3736°W)
Time: 12:23:26
(UTC+00:00)

Lacrosse 5 - Pass Details

Date: 20 June 2021
Orbit: 715 x 724 km, 57.0° (Epoch: 28 July)

Event Time Altitude Azimuth Distance (km) Brightness Sun altitude
Rises 04:29:24 0° 308° (NW) 3,122 6.6 -20.8°
Reaches altitude 10° 04:32:01 10° 298° (WNW) 2,200 5.3 -21.1°
Maximum altitude 04:36:21 29° 239° (WSW) 1,301 3.2 -21.7°
Enters shadow 04:37:52 25° 209° (SSW) 1,441 3.2 -21.9°
